Home   Weather   Boulder   Past weeks
Flag for USA

Past Weather in Boulder, Colorado, USA — Yesterday and Last 2 Weeks

Now
64 °F

Passing clouds.


Feels Like: 64 °F
Forecast: 74 / 43 °F
Wind: 8 mph from South

Location: Broomfield / Jeffco

Current Time: Oct 14, 2019 at 10:23:55 am

Latest Report: Oct 14, 2019 at 9:47 am


Visibility: 20 mi

Pressure: 29.98 "Hg (24.78 "Hg at 1623m altitude)

Humidity: 13%

Dew Point: 12 °F

Location of BoulderLocation

Past Weather in Boulder — Graph

°F

Boulder Temperature Yesterday

Maximum temperature yesterday: 72 °F (at 2:47 pm)
Minimum temperature yesterday: 39 °F (at 3:30 am)
Average temperature yesterday: 51 °F

High & Low Weather Summary for the Past Weeks

 TemperatureHumidityPressure
High90 °F (Sep 29, 3:47 pm)100% (Oct 1, 4:12 am)30.42 "Hg (Oct 1, 4:12 am)
Low19 °F (Oct 11, 2:53 am)7% (Oct 7, 3:45 pm)29.58 "Hg (Oct 9, 4:45 pm)
Average50 °F49%30.05 "Hg
* Reported Sep 29 10:45 am — Oct 14 9:36 am, Boulder. Weather by CustomWeather, © 2019

Note: Actual official high and low records may vary slightly from our data, if they occured in-between our weather recording intervals... More about our weather records

Advertising

Boulder Weather History for the Previous 24 Hours

Scroll right to see more
 ConditionsComfort  
Time TempWeatherWind HumidityBarometerVisibility
9:36 am
Mon, Oct 14
64 °FPassing clouds.3 mph13%29.98 "Hg10 mi
8:45 am57 °FPassing clouds.12 mph17%29.98 "Hg10 mi
7:45 am52 °FSunny.6 mph19%29.97 "Hg10 mi
6:50 am46 °FClear.3 mph23%29.97 "Hg10 mi
5:58 am57 °FClear.15 mph14%29.97 "Hg30 mi
5:35 am55 °FClear.18 mph16%29.97 "Hg10 mi
5:12 am46 °FClear.7 mph23%29.97 "Hg10 mi
4:54 am50 °FClear.7 mph19%29.97 "Hg10 mi
4:30 am50 °FClear.6 mph19%29.97 "Hg10 mi
4:12 am52 °FClear.3 mph22%29.96 "Hg10 mi
3:54 am52 °FClear.6 mph19%29.95 "Hg10 mi
3:30 am48 °FClear.6 mph23%29.95 "Hg10 mi
3:12 am52 °FClear.7 mph17%29.96 "Hg10 mi
2:54 am52 °FClear.3 mph17%29.95 "Hg10 mi
2:30 am54 °FClear.No wind16%29.96 "Hg10 mi
2:12 am52 °FClear.No wind19%29.96 "Hg10 mi
1:54 am50 °FClear.No wind30%29.96 "Hg10 mi
1:30 am52 °FClear.No wind19%29.96 "Hg10 mi
1:12 am50 °FClear.5 mph19%29.95 "Hg10 mi
12:53 am52 °FClear.10 mph16%29.96 "Hg10 mi
12:30 am50 °FClear.8 mph20%29.96 "Hg10 mi
12:12 am48 °FClear.6 mph23%29.97 "Hg10 mi
11:52 pm
Sun, Oct 13
46 °FClear.No wind27%29.97 "Hg10 mi
11:29 pm52 °FClear.No wind19%29.97 "Hg10 mi
11:11 pm52 °FClear.8 mph19%29.97 "Hg10 mi
10:54 pm52 °FClear.7 mph19%29.97 "Hg10 mi
10:30 pm57 °FClear.No wind15%29.99 "Hg10 mi
10:12 pm57 °FClear.No wind15%29.98 "Hg10 mi
9:45 pm54 °FPassing clouds.5 mph18%29.98 "Hg30 mi
8:52 pm54 °FPassing clouds.6 mph19%29.99 "Hg30 mi
7:47 pm57 °FPassing clouds.7 mph15%29.99 "Hg30 mi
6:47 pm64 °FPassing clouds.6 mph12%29.97 "Hg30 mi
5:47 pm70 °FSunny.No wind10%29.96 "Hg60 mi
4:47 pm72 °FSunny.7 mph9%29.95 "Hg60 mi
2:47 pm72 °FSunny.3 mph9%29.96 "Hg60 mi
1:48 pm70 °FSunny.8 mph9%29.98 "Hg30 mi
12:48 pm66 °FSunny.No wind10%30.01 "Hg10 mi
11:55 am64 °FSunny.3 mph12%30.03 "Hg10 mi
10:55 am61 °FSunny.No wind15%30.04 "Hg10 mi
Weather by CustomWeather, © 2019

See weather overview